Location: Dehesa de la Cepeda
(40.6574°N, 4.3013°W)
Time: 08:23:10
(UTC+00:00)

Courier 1B Rocket - Pass Details

Date: 06 August 2021
Orbit: 920 x 1202 km, 28.3° (Epoch: 26 September)

Event Time Altitude Azimuth Distance (km) Brightness Sun altitude
Exits shadow 03:45:38 20° 207° (SSW) 2,071 6.2 -15.9°
Maximum altitude 03:46:29 21° 196° (SSW) 2,035 6.2 -15.8°
Drops below altitude 10° 03:51:06 10° 150° (SSE) 2,659 7.2 -15.1°
Sets 03:54:19 0° 134° (SE) 3,573 8.1 -14.6°
